Hourly Data Report for October 16, 2012

All times are specified in Local Standard Time (LST). Add 1 hour to adjust for Daylight Saving Time where and when it is observed.

KITCHENER/WATERLOO
ONTARIO

43°27'39.000" N
80°22'43.000" W
321.60 m
6144239
71368
YKF

Download Data

Hourly Data (October 2012)
Hourly Data Report for October 16, 2012
Temp Definition
°C
Dew Point Temp Definition
°C
Rel Hum Definition
%
Wind Dir Definition
10's deg

Wind Spd Definition
km/h
Visibility Definition
km
Stn Press Definition
kPa
Hmdx Definition


Wind Chill Definition


Weather Definition


TIME
00:00
01:00
02:00
03:00
04:00 Legend Double Dagger 4.2 3.2 93 29 9 16.1 97.39     LegendNANA
05:00 Legend Double Dagger 4.1 2.9 92 28 9 16.1 97.41     LegendNANA
06:00 Legend Double Dagger 2.7 1.9 95 26 8 16.1 97.45     LegendNANA
07:00 Legend Double Dagger 1.3 1.0 98 26 5 16.1 97.49     LegendNANA
08:00 Legend Double Dagger 4.8 3.7 93 24 8 16.1 97.55     LegendNANA
09:00 Legend Double Dagger 5.9 3.1 82 29 11 16.1 97.57     LegendNANA
10:00 Legend Double Dagger 6.1 1.2 71 29 21 16.1 97.59     LegendNANA
11:00 Legend Double Dagger 6.5 1.2 69 31 13 16.1 97.58     LegendNANA
12:00 Legend Double Dagger 8.1 1.6 64 28 15 16.1 97.52     LegendNANA
13:00 Legend Double Dagger 9.4 1.9 59 25 11 16.1 97.44     LegendNANA
14:00 Legend Double Dagger 9.6 2.7 62 25 15 16.1 97.39     LegendNANA
15:00 Legend Double Dagger 10.6 2.8 58 23 15 16.1 97.34     LegendNANA
16:00 Legend Double Dagger 9.8 3.2 63 23 15 16.1 97.34     LegendNANA
17:00 Legend Double Dagger 8.9 2.9 66 20 13 16.1 97.32     LegendNANA
18:00 Legend Double Dagger 5.8 2.5 79 16 8 16.1 97.30     LegendNANA
19:00 Legend Double Dagger 4.3 2.1 85 16 8 16.1 97.28     LegendNANA
20:00 Legend Double Dagger 5.6 2.9 83 17 9 16.1 97.28     LegendNANA
21:00 Legend Double Dagger 3.5 2.2 91   0 16.1 97.24     LegendNANA
22:00 Legend Double Dagger 2.6 2.0 96 14 4 16.1 97.25     LegendNANA
23:00 Legend Double Dagger 3.1 2.2 94 13 9 16.1 97.29     LegendNANA

Notes on Data Quality.

Legend

  • E = Estimated
  • M = Missing
  • NA = Not Available
  • ‡ = Partner data that is not subject to review by the National Climate Archives
Date modified: